Wind_Speed
44 45 46 47 47 48 48 48 49 50 51 52 53 54 54 55 54 54 54 55 57 58 59 60 60 61 62 63 65 66 67 68 67 66 65 64 63 61 60 60 61 62 63 63 64 65 65 66 67 68 69 70 71 72 73 74 75 76 76 77 77 78 78 80 79 79 80 79 78 76 75 73 72 70 67 66 67 67 67 67 66 64 62 60 59
45 46 47 48 48 49 49 49 49 50 51 53 54 54 54 54 53 54 56 57 58 59 60 60 60 61 62 64 65 66 67 66 65 64 63 62 61 60 60 61 61 62 63 64 65 65 66 68 69 70 71 72 73 74 75 76 76 77 78 78 80 81 81 80 78 75 75 76 77 76 75 74 72 70 67 64 64 64 65 66 65 63 61 58 56
46 47 48 49 49 49 50 50 50 51 52 52 52 52 53 54 56 57 58 58 58 59 59 59 60 61 62 64 65 65 65 64 63 62 61 61 61 61 61 61 62 63 64 64 65 67 68 70 71 72 73 74 75 76 76 77 78 78 79 80 81 82 81 78 76 73 73 74 75 75 74 74 73 71 67 65 64 63 63 63 64 63 60 57 54
49 49 49 50 50 50 50 50 50 51 50 50 52 54 56 57 57 57 57 58 59 58 58 59 60 62 63 64 64 63 63 62 61 60 60 61 61 61 61 61 63 64 64 66 67 69 70 72 72 73 74 75 76 77 77 78 78 79 80 81 82 80 79 77 75 74 73 73 74 74 73 72 71 69 65 62 62 62 61 61 62 62 60 57 53
49 49 49 50 50 50 50 50 50 50 51 52 54 55 56 56 55 56 57 58 58 57 58 59 61 62 63 62 62 61 61 60 59 59 60 61 61 62 62 62 64 65 66 67 69 71 72 73 74 75 76 77 77 78 79 79 79 80 81 81 80 78 77 76 76 75 75 73 73 72 72 70 68 66 63 59 57 58 58 58 59 59 59 58 55
49 49 49 49 49 50 50 49 50 51 52 52 53 53 55 55 55 56 58 57 57 57 59 60 61 62 61 60 59 59 59 58 58 59 60 60 62 63 63 64 66 67 68 69 71 72 74 74 75 76 77 78 78 79 80 80 81 81 81 79 78 77 76 77 76 76 76 74 72 70 69 68 64 62 61 58 54 53 53 55 57 56 54 55 57
49 50 50 50 50 50 50 49 50 52 52 52 53 53 54 55 56 56 57 56 57 59 60 61 61 60 59 58 58 57 57 58 58 59 59 61 63 64 65 66 68 69 69 70 72 73 74 75 76 77 78 78 79 80 80 81 81 81 79 78 77 77 77 77 77 76 75 73 71 68 66 65 62 60 59 57 55 52 49 50 54 54 52 52 54
50 50 51 51 51 50 50 49 50 51 51 53 54 54 53 55 55 55 56 57 59 60 61 60 59 58 57 56 56 56 56 57 58 59 61 63 64 66 67 68 69 69 70 71 73 74 75 76 77 78 79 79 80 80 80 81 81 80 79 78 78 78 78 77 76 74 72 71 69 66 64 62 61 60 59 57 55 53 50 48 49 50 51 52 52
51 51 51 51 51 51 50 49 50 50 50 52 53 53 54 55 55 55 57 58 60 60 59 58 57 56 56 55 55 55 56 57 58 60 62 64 66 67 68 69 69 69 70 71 73 74 75 76 77 79 80 80 81 81 81 81 80 79 78 78 78 78 77 76 73 70 69 68 65 62 61 60 59 58 57 56 54 52 50 49 48 47 48 51 53
50 51 51 51 51 50 49 48 48 49 49 51 53 55 56 55 55 56 58 59 60 59 57 56 55 55 54 54 54 55 55 57 59 61 63 65 66 67 68 68 69 69 71 73 74 75 76 77 78 80 81 82 82 82 82 82 80 78 78 78 77 76 75 73 71 68 66 65 62 59 57 57 56 54 53 52 51 49 48 46 46 46 45 47 52
49 50 50 50 50 50 49 47 47 48 49 50 52 55 55 55 56 58 59 59 58 56 55 54 54 54 53 53 54 54 56 58 60 62 64 66 67 68 68 68 69 71 73 74 74 75 76 78 79 80 82 83 83 84 83 82 80 80 79 78 77 75 72 70 67 65 63 62 61 57 53 52 52 51 50 49 48 47 46 45 43 44 44 43 47
49 49 49 49 49 49 49 48 47 47 47 47 50 53 54 55 57 59 59 58 56 54 53 53 53 53 53 53 53 55 57 59 61 63 65 67 68 69 69 70 71 73 74 75 75 76 77 78 79 81 82 83 84 85 83 82 81 81 80 79 77 75 72 69 66 62 60 59 58 55 51 49 49 49 48 48 49 48 48 46 44 42 43 41 41
48 48 48 47 48 49 49 47 46 45 44 45 49 53 55 56 58 58 57 55 53 53 53 52 53 52 52 52 54 57 59 60 62 64 66 68 70 70 71 72 74 75 76 75 76 76 77 78 79 81 82 84 85 84 83 82 82 82 81 79 77 75 72 70 67 63 60 58 57 54 50 47 47 48 49 49 49 49 48 48 46 45 44 41 39
47 48 48 47 47 48 48 46 45 44 44 47 51 54 56 57 57 56 54 53 52 52 52 52 52 52 52 53 55 58 60 62 63 65 67 70 71 72 73 75 76 77 77 76 76 77 77 78 79 81 82 83 84 83 82 83 83 82 80 78 76 74 72 70 67 64 61 59 57 55 51 48 47 48 49 49 47 47 45 44 44 44 45 44 40
47 47 47 47 47 47 47 47 45 44 47 50 52 54 56 56 55 53 53 52 52 52 52 52 52 52 53 54 56 59 62 63 65 67 69 71 73 74 75 76 77 78 78 77 77 77 77 78 79 81 82 82 82 81 82 83 82 81 78 76 75 74 72 69 65 62 60 59 57 55 53 51 49 48 47 46 45 45 44 42 39 38 41 43 40
47 47 47 47 47 47 47 47 46 47 50 51 52 54 54 53 52 52 52 51 51 52 52 53 53 53 54 55 57 60 63 65 66 68 70 72 74 75 77 78 78 79 79 78 77 77 77 78 79 80 81 81 81 81 81 81 80 78 76 75 74 73 70 67 64 62 60 59 59 58 56 54 52 49 46 43 42 42 42 41 38 35 36 39 40
47 47 47 47 47 47 48 48 48 50 51 52 52 53 53 51 51 51 51 51 51 52 53 53 54 55 55 56 59 61 64 66 68 70 72 73 75 76 78 78 79 80 79 78 77 77 77 78 79 80 80 80 79 80 80 79 77 75 74 73 72 70 68 65 64 62 61 61 60 60 59 57 54 51 47 44 41 39 37 37 36 34 32 34 38
48 48 48 48 48 48 49 49 50 51 51 51 52 51 51 50 50 50 51 51 52 53 53 54 55 55 57 58 60 62 65 67 69 71 72 74 76 77 78 79 80 80 79 78 78 77 77 78 78 79 78 78 79 79 78 76 74 72 71 70 69 66 63 61 61 61 61 61 61 61 60 59 55 52 48 45 41 38 35 34 32 30 28 29 32
48 49 49 49 49 49 50 50 51 51 51 50 50 50 49 49 49 50 51 52 53 53 54 55 56 57 59 60 62 64 66 68 70 72 73 75 77 78 79 80 80 80 79 79 78 77 76 77 77 77 77 77 78 77 75 73 71 69 68 67 65 62 60 58 57 57 58 58 58 58 57 56 54 52 49 45 42 39 36 35 33 30 29 27 27
49 49 49 49 50 50 50 51 51 50 50 49 49 49 49 49 49 51 52 53 53 54 55 56 57 59 61 63 64 66 68 70 71 73 74 76 78 79 80 80 81 80 79 78 77 76 75 75 75 75 76 76 76 74 72 70 68 67 65 63 60 58 56 55 55 55 55 56 55 54 54 54 53 51 49 46 43 41 38 37 36 33 32 29 26
49 49 49 49 50 50 50 50 50 50 49 48 48 49 49 49 50 51 53 53 54 55 55 56 58 61 63 65 67 68 70 71 72 74 75 77 79 80 80 81 81 80 79 77 75 74 73 73 73 74 74 74 73 71 69 67 66 64 62 60 57 55 54 53 53 54 54 55 54 52 52 53 53 52 50 47 44 41 39 37 36 34 31 30 28
49 49 49 49 50 50 49 49 49 49 48 48 48 49 50 50 51 52 53 54 55 56 57 58 60 62 65 67 68 70 71 72 74 75 77 78 79 80 80 81 81 80 78 75 73 72 71 71 71 72 72 72 70 68 67 65 63 62 60 57 55 53 52 52 52 53 53 54 53 51 50 50 51 50 49 47 43 41 39 35 33 32 30 27 26
49 49 49 49 49 49 48 47 48 48 49 49 49 49 50 51 52 53 54 55 56 57 58 60 62 64 66 68 70 71 72 73 75 76 78 79 80 80 81 81 80 78 75 72 70 70 70 70 70 71 70 69 66 65 64 62 61 59 57 55 53 52 52 52 52 53 53 53 53 51 48 47 48 47 46 45 41 38 36 32 29 29 29 27 24
49 49 49 48 49 48 48 48 48 49 49 49 50 51 51 52 53 54 55 56 57 59 60 62 64 66 68 69 70 72 73 75 76 78 79 80 80 81 81 80 78 75 71 69 68 68 68 68 69 69 67 65 64 62 60 59 58 56 53 52 51 50 50 51 51 52 52 52 52 52 48 45 44 44 43 42 39 36 35 33 30 28 27 25 24
48 49 48 48 48 48 48 48 49 49 49 50 51 52 52 53 54 55 57 58 60 61 62 64 66 68 69 71 72 73 74 76 78 79 79 80 81 81 80 78 75 71 67 66 66 66 66 67 67 66 64 63 62 59 58 56 54 52 50 49 49 48 48 49 50 50 51 51 50 50 48 44 43 42 42 40 39 37 36 35 35 33 30 28 26
48 48 48 48 48 48 49 49 49 50 50 51 52 53 54 55 56 57 59 61 62 63 64 66 68 69 71 72 73 75 76 78 79 79 80 81 81 80 78 74 70 66 64 64 64 64 65 65 64 62 62 61 59 57 56 54 52 50 48 47 47 46 46 47 48 48 49 49 48 48 48 45 43 42 42 41 39 37 34 33 33 33 31 29 26
48 48 49 49 49 49 49 50 50 51 52 53 54 54 56 57 58 60 61 63 65 66 67 69 70 71 72 74 75 77 78 79 80 80 81 80 80 77 74 69 64 62 62 62 62 62 63 62 61 60 60 59 57 55 54 52 50 48 46 45 45 45 45 45 45 45 46 47 47 47 47 46 44 42 41 39 38 36 33 30 30 31 30 28 24
49 49 49 49 50 50 51 52 52 53 53 54 55 56 57 59 60 62 63 65 66 68 70 71 73 73 74 76 77 79 79 80 80 80 80 79 76 72 67 62 60 60 60 60 60 61 60 59 58 59 58 56 54 53 52 49 46 45 45 44 44 44 44 45 45 45 46 47 47 46 47 47 45 42 40 38 36 35 33 30 28 27 28 27 23
50 50 51 51 52 52 53 53 54 55 55 56 57 58 60 61 63 64 66 67 68 70 72 74 74 75 77 78 79 80 80 80 80 79 78 75 70 65 60 58 58 57 58 58 59 58 57 57 58 57 56 54 53 52 51 49 45 43 43 43 43 43 44 45 45 45 45 45 45 45 44 45 45 43 40 38 35 33 32 30 28 26 26 25 22
51 52 52 53 53 54 55 55 55 56 57 58 59 61 62 63 65 67 69 70 71 73 75 75 76 78 79 80 81 81 80 79 78 76 72 68 62 58 56 56 55 55 56 57 56 55 55 56 57 55 54 53 52 51 49 48 46 44 43 42 42 42 43 44 43 43 43 43 44 43 42 42 42 42 40 37 35 32 29 28 26 25 25 24 22
53 53 54 54 54 55 56 57 57 58 60 61 62 64 65 66 68 71 72 73 74 75 76 77 78 80 81 81 81 80 78 76 73 69 65 60 57 55 54 54 54 54 55 54 53 54 55 56 55 53 52 51 50 49 48 47 45 44 43 42 41 41 42 42 42 42 42 43 42 42 42 40 40 40 39 37 34 32 29 27 25 23 23 23 21
54 54 55 55 55 56 57 58 59 61 62 64 65 67 68 69 72 74 75 76 77 77 78 79 80 81 81 80 78 76 73 70 66 62 58 56 54 53 52 52 53 53 52 51 51 53 55 55 53 51 50 50 48 47 46 45 44 43 42 41 41 40 40 40 40 39 40 40 40 40 40 39 38 38 37 36 34 32 29 27 25 22 20 19 19
55 55 56 56 56 57 59 60 62 64 65 67 68 70 71 73 75 76 78 79 80 80 80 80 80 79 78 75 72 69 66 62 59 57 55 54 52 51 51 51 51 51 50 49 51 52 54 52 51 49 49 49 47 45 44 44 43 42 41 41 40 40 39 38 38 38 38 38 38 38 38 38 37 37 36 35 34 32 29 26 24 22 20 18 17
56 57 57 58 58 60 61 63 65 67 68 70 72 73 74 75 76 78 79 81 81 81 80 78 77 74 71 68 65 63 60 57 55 54 52 51 50 50 50 50 49 49 48 49 50 52 52 50 49 49 48 47 45 44 43 43 43 42 41 40 39 38 38 37 37 37 37 37 37 37 37 36 35 35 35 34 33 31 30 27 25 23 20 18 16
58 59 59 60 61 62 64 66 68 70 72 73 75 76 77 78 79 80 80 80 80 78 75 72 69 67 64 61 60 58 56 54 53 51 50 49 49 49 48 48 48 47 47 49 50 50 49 48 48 48 47 45 44 42 42 42 42 41 41 40 39 38 37 37 36 36 37 36 36 36 36 35 34 33 33 32 31 30 28 26 24 22 20 17 15
60 61 62 62 63 65 67 69 71 73 75 76 77 79 80 80 80 79 78 76 74 71 67 64 62 60 59 57 56 54 53 51 50 49 48 47 47 47 47 47 47 47 47 49 50 48 48 48 48 47 45 43 42 41 41 41 41 40 40 39 39 37 36 36 36 36 36 36 35 34 34 34 33 33 32 31 30 28 26 25 23 20 18 17 15
63 64 64 65 66 68 70 72 74 76 78 79 80 80 80 79 77 74 71 69 66 63 60 59 57 56 55 54 52 51 50 50 49 47 46 45 45 45 46 46 47 47 48 49 48 47 47 47 47 46 44 42 41 40 40 39 39 39 38 37 36 36 35 35 35 35 35 35 34 33 32 31 31 31 31 30 30 29 27 25 23 20 18 16 15
65 66 67 69 70 71 73 75 77 79 80 79 78 77 76 74 71 68 65 62 60 58 56 55 54 53 51 50 49 49 49 48 46 45 44 44 44 45 46 46 47 48 48 48 47 47 47 46 46 44 42 41 40 39 39 39 39 38 37 35 34 34 34 34 34 34 33 33 32 31 30 29 29 29 29 29 28 28 27 26 24 22 19 16 15
68 69 70 71 73 74 76 77 78 78 77 76 74 71 69 67 65 62 60 57 55 54 53 52 51 50 48 48 48 48 47 45 44 43 43 44 44 44 46 47 48 48 48 47 46 46 46 45 44 42 40 39 39 38 38 39 39 38 36 34 33 32 32 33 33 33 32 31 30 29 28 27 27 26 26 27 27 26 26 25 24 23 21 18 16
71 72 73 74 75 76 77 76 75 73 72 69 67 66 63 61 59 58 56 54 52 51 50 50 49 48 47 46 46 46 45 44 43 43 43 43 44 45 46 47 48 48 47 46 46 46 45 44 42 40 39 38 37 37 38 39 39 38 36 34 33 32 32 32 32 32 31 30 28 27 27 26 26 25 24 24 25 25 25 25 24 22 21 18 16
73 74 75 75 75 75 74 72 69 67 65 62 61 60 59 58 56 54 52 51 50 49 48 48 48 46 45 45 45 44 44 43 42 42 42 44 45 46 47 47 47 47 47 46 45 45 44 42 39 38 37 36 36 36 37 38 39 38 36 35 34 34 33 33 32 32 31 29 27 26 25 25 24 24 23 23 23 24 24 24 23 22 21 19 17
75 76 75 74 72 71 69 67 64 62 60 58 57 56 55 54 52 51 49 48 47 46 46 46 46 44 43 43 43 43 43 42 41 42 43 45 46 47 48 48 48 47 46 45 44 44 42 40 37 36 36 35 35 36 37 37 38 37 37 37 36 35 35 34 34 33 31 29 27 26 24 23 23 23 23 22 22 21 22 23 23 22 21 20 18
76 75 72 70 68 66 64 62 60 59 57 55 54 53 52 51 50 48 46 44 43 43 43 43 42 41 40 41 42 42 42 42 42 43 45 47 47 48 48 48 47 47 46 44 44 42 40 37 35 35 34 34 34 35 36 36 36 37 37 37 37 36 36 36 35 34 33 30 28 26 25 24 23 22 23 23 22 21 20 21 22 22 21 20 19
73 71 68 66 63 62 60 59 57 56 55 53 52 51 51 51 50 49 47 45 43 42 41 40 40 39 39 40 42 43 43 43 44 45 47 48 49 49 48 47 46 46 45 44 42 40 38 35 34 34 33 33 34 34 34 34 34 35 36 36 36 36 36 35 35 34 33 32 29 27 26 24 23 22 22 23 23 22 21 20 20 20 20 20 19
69 66 64 62 60 58 57 56 55 54 53 52 52 52 51 51 50 50 49 47 45 44 43 41 40 40 41 42 43 45 45 46 46 47 48 49 49 48 46 45 45 44 44 42 40 38 36 34 33 33 33 33 33 33 32 33 33 34 35 35 35 34 34 34 33 32 33 32 30 27 26 25 24 23 22 22 23 23 23 21 20 19 19 19 19
65 63 61 59 57 55 54 53 53 53 52 52 52 52 51 51 50 50 49 48 47 46 45 43 42 43 43 44 46 47 48 48 48 49 48 48 47 45 45 44 44 43 41 39 37 36 35 34 33 33 32 32 32 32 32 32 32 32 33 33 32 32 32 32 32 32 32 32 30 27 25 25 25 24 23 22 22 23 23 23 21 19 18 18 18
62 61 59 57 54 52 52 52 52 52 51 51 52 52 51 50 50 49 48 48 48 47 46 44 44 44 45 46 47 49 49 49 48 47 46 45 44 44 43 43 42 41 39 37 36 35 34 34 33 32 32 32 31 32 32 32 32 32 32 31 31 31 31 31 32 32 32 32 31 29 26 25 25 24 24 23 22 22 22 22 22 20 18 17 17
59 57 56 54 53 51 51 51 51 51 51 51 51 50 49 48 48 47 47 48 48 47 45 43 44 45 46 47 48 48 48 47 46 44 43 43 42 42 42 41 40 39 38 36 35 35 34 34 33 32 31 32 32 33 33 33 33 33 33 32 31 31 31 32 32 32 32 32 32 31 29 27 25 25 24 24 23 22 22 22 21 20 19 18 17
56 55 55 54 53 51 50 50 50 49 49 49 49 48 47 46 46 46 47 48 48 46 44 42 43 44 45 46 46 45 44 44 43 42 41 41 41 41 40 39 38 38 37 36 36 35 34 33 33 32 32 32 33 33 34 34 34 34 34 34 33 33 33 33 33 32 32 32 32 32 31 29 27 25 25 25 24 23 22 22 21 21 20 19 18
54 54 54 54 53 51 49 48 48 48 48 47 46 45 45 45 46 46 46 47 48 46 43 41 41 41 42 42 42 41 41 41 41 40 40 40 40 39 38 38 37 37 37 37 36 36 35 34 33 33 33 33 34 34 34 34 34 34 34 35 35 35 34 34 34 34 33 32 32 31 31 31 29 27 26 25 25 23 22 22 22 22 21 20 19
53 53 52 52 51 50 48 48 47 46 46 46 45 44 44 44 45 45 45 46 46 45 43 41 40 39 39 40 40 39 40 40 40 40 40 39 38 37 37 36 37 37 37 37 37 36 36 35 35 35 35 35 35 35 35 35 35 35 35 36 36 36 35 35 35 36 35 34 33 32 31 31 30 28 27 26 25 24 23 23 22 23 23 22 21
Wind_Direction
268 270 272 274 276 277 279 281 283 285 286 287 289 290 292 294 295 295 296 297 299 301 303 305 305 305 306 307 308 309 310 310 310 310 310 310 311 312 312 312 312 312 312 312 312 311 311 310 309 309 310 310 310 310 310 310 310 310 310 309 309 309 309 308 307 307 306 306 306 305 304 302 301 300 298 297 296 294 292 288 285 281 278 274 270
271 272 274 276 277 279 281 283 285 286 287 289 291 293 294 295 296 296 298 299 300 302 304 304 304 305 306 307 308 309 309 309 309 310 310 311 311 312 312 312 312 312 312 312 311 311 310 310 310 310 310 310 311 311 311 311 311 311 311 311 311 310 309 309 308 308 308 308 307 307 306 305 304 302 301 299 297 295 292 290 287 284 280 276 272
272 274 275 277 279 280 282 284 285 287 288 290 292 294 296 297 297 298 299 300 300 302 302 302 303 305 306 307 308 308 309 309 309 310 310 311 311 311 312 312 312 312 312 311 311 310 310 310 310 311 311 311 311 312 312 313 313 313 312 312 311 311 310 310 310 310 310 309 308 308 308 306 305 304 303 302 299 296 294 292 290 287 283 280 275
273 275 277 278 280 281 283 284 286 287 288 290 292 294 295 296 296 297 298 298 299 300 300 301 303 305 306 307 308 308 308 309 309 310 310 311 311 311 312 313 312 312 311 311 311 310 310 310 311 311 311 312 312 313 314 314 314 314 313 312 312 312 312 312 312 312 312 311 310 309 308 306 305 304 303 301 299 297 295 293 291 289 287 284 279
275 277 278 280 281 282 283 285 287 288 289 290 291 292 292 293 294 296 297 297 298 298 299 301 303 304 306 307 307 308 308 309 309 310 310 311 311 312 312 312 312 312 312 311 311 311 311 311 311 311 312 313 314 314 315 315 315 314 314 314 314 314 314 314 314 314 314 313 312 310 308 307 305 304 303 301 299 297 295 293 290 288 288 287 284
276 278 279 281 281 283 285 286 287 288 290 290 290 291 291 292 294 296 296 296 297 298 299 302 303 305 306 306 307 307 308 308 309 310 310 311 311 312 312 312 312 312 312 312 312 311 311 312 312 313 313 314 315 316 316 316 316 315 315 316 316 316 316 316 316 316 315 314 313 311 309 307 307 306 304 303 301 299 297 295 292 289 288 286 285
276 278 280 281 283 284 286 286 287 289 291 291 290 290 291 293 295 296 296 297 298 299 301 303 304 305 306 306 307 307 308 309 309 310 310 311 311 312 313 313 313 314 314 313 312 312 312 313 313 314 315 315 316 316 316 317 317 317 318 318 318 318 318 318 317 317 316 314 313 312 311 310 309 308 307 306 305 302 300 297 294 293 290 286 283
277 279 281 282 283 284 285 286 286 287 288 288 288 287 289 292 294 294 295 297 299 300 302 303 304 305 306 306 307 307 308 309 309 310 311 311 312 313 314 315 316 316 315 314 313 313 314 314 315 315 316 316 317 317 317 318 319 319 319 320 320 320 319 318 317 317 316 315 314 314 313 313 312 311 310 309 308 306 303 299 296 294 292 288 283
278 279 281 282 283 283 284 284 284 285 285 286 286 286 288 291 293 293 295 297 299 301 302 303 304 305 305 306 307 307 308 308 309 311 312 313 314 315 316 317 318 318 316 314 314 315 315 315 316 316 317 317 317 318 319 320 320 320 321 321 321 320 318 318 318 318 317 316 315 315 316 315 314 312 311 309 308 306 304 302 299 295 292 290 286
278 278 279 280 282 283 284 284 284 285 285 286 286 288 290 291 293 294 296 298 299 301 302 303 304 304 305 306 306 307 307 308 310 312 313 315 316 317 318 320 320 318 316 315 315 316 316 316 317 317 317 318 318 320 321 321 321 322 322 322 321 319 318 318 319 319 318 317 316 316 317 316 314 312 311 309 308 307 305 302 299 296 293 291 288
276 277 279 280 282 283 284 285 285 286 287 287 288 288 290 293 295 296 297 299 300 301 302 303 303 304 305 305 305 306 307 309 311 313 315 316 318 318 320 321 319 317 316 317 317 317 317 317 318 318 318 319 320 321 322 322 323 323 323 322 321 320 319 319 320 320 320 319 317 317 318 317 315 314 314 313 312 311 308 304 301 298 295 292 289
276 277 278 280 281 282 284 286 286 287 289 289 288 288 290 294 296 297 298 299 300 301 302 303 303 303 304 304 304 306 308 310 312 314 316 317 318 320 321 321 319 318 318 318 318 317 317 318 318 318 319 320 321 322 322 323 324 324 323 322 321 321 321 321 322 322 322 320 318 319 320 321 320 319 319 319 318 316 312 308 306 302 298 295 291
275 276 277 279 280 281 283 285 286 287 287 286 285 287 290 293 296 296 297 298 299 300 301 302 302 303 302 302 304 306 308 310 313 315 316 318 319 320 321 320 319 319 319 319 318 318 318 318 318 319 319 320 321 322 323 324 324 324 323 323 323 322 323 323 324 324 324 323 321 322 323 325 326 326 325 324 321 317 314 311 310 307 303 300 297
274 275 277 278 279 281 282 283 285 285 283 282 283 287 290 293 295 295 296 297 299 300 301 301 301 301 301 301 304 306 308 311 313 314 316 317 318 319 320 319 319 320 320 319 318 318 318 318 319 319 319 320 321 322 323 324 324 323 323 323 323 324 324 325 326 326 326 325 325 325 327 329 331 330 327 325 321 317 313 311 310 309 306 304 302
274 275 277 278 279 280 281 282 283 282 281 282 283 286 289 291 293 294 295 297 298 299 300 300 300 300 300 301 304 307 308 310 312 314 315 316 317 318 319 319 319 320 319 319 318 318 318 318 319 319 319 320 321 323 323 323 323 323 323 324 324 324 325 325 326 327 327 327 327 329 331 332 333 332 329 326 322 317 314 311 309 308 305 303 302
275 276 278 278 279 280 280 282 282 281 282 283 284 285 288 290 291 293 295 296 298 298 298 299 298 299 300 302 305 306 308 310 312 313 314 315 316 317 318 318 319 319 319 319 318 318 318 318 318 318 319 320 322 322 323 322 322 323 324 324 324 325 325 326 327 328 329 330 331 332 333 334 333 332 330 328 324 320 318 316 314 313 309 305 303
277 278 278 278 279 280 281 282 282 282 283 284 285 286 288 290 292 293 295 296 297 297 298 298 298 299 300 303 304 306 307 309 311 312 313 314 315 316 317 318 318 318 318 318 318 318 318 318 318 318 319 320 321 322 322 322 323 324 324 324 324 325 326 328 329 331 332 333 334 334 334 334 333 333 332 331 328 324 322 321 319 318 314 309 305
277 278 278 279 280 281 282 282 283 284 285 285 285 287 288 290 292 293 294 295 296 297 298 297 297 299 301 302 304 305 307 309 310 311 312 313 314 315 316 317 317 318 318 318 318 317 317 317 317 318 319 320 321 321 321 322 323 324 324 324 324 325 327 329 331 332 333 334 335 335 334 333 333 333 334 333 331 328 328 326 324 322 318 313 308
277 278 279 280 281 282 283 283 284 284 285 286 286 287 288 290 292 293 294 295 297 297 297 297 297 299 300 302 303 305 307 309 310 311 312 313 314 315 315 316 317 317 317 317 317 317 316 316 317 318 319 320 321 320 320 322 323 324 324 324 324 325 328 331 332 332 333 334 335 335 333 332 333 335 335 335 334 333 334 333 331 330 325 319 314
278 279 280 281 282 282 283 283 284 285 285 286 286 287 288 290 292 293 294 295 296 296 296 296 298 299 301 303 304 306 308 309 310 311 312 313 313 314 315 315 316 316 316 316 316 316 316 316 317 318 318 319 319 319 320 322 323 323 324 324 324 327 329 331 332 332 333 334 334 335 335 335 335 336 337 338 337 337 339 339 336 335 331 325 319
278 279 281 281 282 282 283 284 284 285 285 285 286 288 289 291 292 293 294 295 295 295 295 296 298 300 302 304 306 307 309 309 310 310 311 312 312 313 314 314 315 315 315 315 315 315 315 316 316 317 318 318 318 319 321 322 323 324 324 325 326 328 330 331 332 334 334 334 335 337 339 338 338 338 338 339 339 339 340 341 337 335 333 329 325
278 280 281 281 281 281 282 283 284 284 285 286 287 288 290 291 292 293 293 294 294 294 296 297 299 300 302 304 306 308 308 308 309 310 310 311 311 312 313 313 314 314 314 314 314 314 315 315 315 316 317 317 318 320 322 323 324 324 325 326 328 330 331 332 334 335 335 335 336 338 341 341 340 340 339 339 340 340 340 340 339 336 334 333 330
278 279 279 280 281 281 282 283 283 284 285 287 288 289 290 291 292 292 292 293 294 295 296 298 300 301 302 304 306 307 307 307 308 308 309 310 311 311 312 312 313 313 313 313 313 313 314 315 315 316 316 317 319 321 322 323 324 325 326 327 329 331 332 334 335 335 336 336 337 339 342 343 342 341 340 339 339 339 339 339 342 342 339 337 337
278 278 279 280 281 282 283 283 284 285 286 287 288 289 290 291 291 292 293 293 294 295 297 298 299 301 303 304 305 305 305 306 307 308 308 309 309 310 311 312 312 312 312 312 312 313 313 314 314 315 315 317 320 322 323 324 325 325 326 328 330 331 333 334 335 336 336 338 338 338 341 343 343 342 341 340 340 341 342 342 345 347 345 344 346
277 278 279 280 281 282 283 284 285 286 287 287 288 289 289 290 291 292 293 294 294 296 297 298 299 301 303 304 304 304 304 305 306 307 307 308 309 309 310 311 311 311 311 311 312 312 313 313 314 315 316 319 321 322 323 325 325 325 327 329 330 331 333 334 336 336 337 338 338 338 339 343 345 344 343 343 344 346 348 349 349 349 350 351 353
278 278 279 280 281 282 283 285 286 287 287 287 288 288 289 290 291 292 293 294 295 296 297 298 300 301 303 303 303 303 304 305 305 306 307 307 308 309 309 309 309 309 310 311 311 312 312 313 314 316 318 320 321 323 324 325 325 326 329 330 329 330 333 335 336 337 337 337 338 338 339 343 347 347 347 347 346 347 351 353 351 350 350 352 353
277 278 279 280 282 283 284 285 286 286 287 287 288 288 289 290 292 293 294 295 296 297 298 299 300 302 302 302 302 302 303 304 305 305 306 306 307 308 308 308 308 309 309 310 310 311 312 313 315 317 319 320 322 323 325 325 326 327 329 329 328 330 333 335 336 337 337 337 339 341 341 343 347 349 349 349 348 347 350 354 355 352 350 351 354
278 279 280 281 282 283 284 285 286 286 287 287 288 289 290 291 292 293 294 295 296 297 298 299 300 301 301 301 301 302 303 303 304 304 305 306 306 307 307 307 307 308 309 309 310 311 312 314 316 318 319 321 322 324 324 324 326 327 327 327 328 331 334 336 337 338 339 339 340 342 343 344 345 348 350 350 350 349 349 352 357 356 353 352 357
278 279 280 281 282 283 284 286 286 287 287 288 289 290 291 292 293 293 294 295 296 297 298 299 300 300 300 300 301 302 302 303 303 304 304 305 305 305 305 305 306 307 308 309 310 312 314 316 318 319 320 321 323 324 323 323 325 327 327 327 330 333 336 337 338 339 339 339 340 342 344 343 344 346 349 351 351 351 350 351 355 358 358 357 360
278 279 280 281 283 284 286 287 287 288 288 289 290 291 291 292 293 293 294 295 296 297 298 299 299 299 299 300 301 301 302 302 302 303 303 303 303 303 303 304 305 307 308 309 311 313 316 317 318 319 320 322 324 324 323 323 325 327 327 329 333 336 337 337 338 338 338 339 339 340 342 343 344 345 348 350 351 351 351 352 355 359 0 0 1
278 280 281 283 285 286 287 288 288 289 289 290 291 291 292 293 293 293 294 295 297 297 297 298 298 299 299 300 300 300 301 301 301 302 302 301 301 301 302 303 305 306 307 309 313 315 316 317 318 319 321 323 324 323 322 323 324 326 327 330 334 337 337 337 337 337 338 338 339 339 340 342 344 345 347 349 351 352 352 353 355 359 2 1 359
280 281 283 285 286 287 288 288 289 289 290 290 291 291 292 293 293 294 295 296 296 297 297 298 298 298 298 299 299 299 299 300 300 300 299 298 299 300 302 303 304 305 308 311 314 316 317 317 318 320 322 323 322 322 321 321 323 325 328 331 334 336 336 335 336 336 337 337 337 337 338 340 342 344 346 348 350 352 353 353 354 357 2 3 1
281 283 284 285 287 288 288 288 289 290 290 291 291 291 292 293 293 295 295 296 296 296 297 297 297 297 297 297 297 297 298 298 298 296 296 297 299 300 301 301 303 306 310 313 315 316 316 317 319 321 322 322 321 320 320 320 322 325 328 331 334 335 334 333 334 335 336 336 336 336 338 340 342 344 345 347 349 351 352 353 354 355 358 3 5
281 283 284 286 287 288 288 289 289 290 290 291 291 292 292 293 294 294 294 295 295 296 296 296 296 296 296 296 295 295 295 295 294 295 296 297 298 298 299 301 304 308 311 314 315 316 316 317 319 321 321 320 319 319 319 320 322 325 328 331 333 333 332 331 332 334 335 336 337 337 337 339 341 343 344 346 348 350 351 352 354 354 353 358 3
282 283 285 286 287 288 288 289 289 290 290 291 291 292 292 293 293 293 294 294 295 295 295 295 294 294 294 293 293 293 293 293 293 294 295 296 296 298 300 304 307 310 312 314 315 316 316 318 319 320 319 318 317 317 318 320 322 325 327 329 331 331 330 330 332 334 336 337 338 338 338 339 340 341 342 344 347 350 351 351 351 351 351 351 356
282 283 285 286 287 288 289 289 290 290 290 291 292 292 293 293 293 293 293 293 293 293 293 293 292 292 291 291 291 291 291 292 292 293 294 295 297 300 303 306 308 311 313 314 315 316 317 318 318 318 317 316 316 317 318 320 322 324 326 327 328 328 328 330 332 335 336 337 338 339 339 339 340 340 341 343 345 348 351 351 350 350 350 348 349
282 284 285 287 288 289 289 289 290 290 291 291 292 292 292 292 292 292 292 292 292 292 292 291 290 290 290 290 290 290 290 291 292 293 295 297 300 303 305 307 309 311 313 314 315 317 317 317 317 317 316 316 316 317 318 319 320 322 324 325 325 325 327 330 333 335 336 336 337 338 339 339 340 340 341 343 344 347 349 351 351 351 351 349 346
283 285 286 288 288 289 289 290 290 291 291 291 291 291 291 291 291 291 291 291 291 291 290 289 289 290 290 290 290 290 290 291 293 295 297 300 302 304 306 307 310 312 313 314 316 316 316 316 315 315 314 315 316 316 317 317 318 320 323 323 323 324 327 331 333 334 335 336 336 337 339 340 341 341 342 343 345 346 347 348 350 351 352 351 347
284 285 286 287 288 289 290 290 290 290 290 291 290 290 290 290 290 290 290 290 290 290 290 290 290 290 290 290 290 290 292 293 295 297 300 301 303 305 306 308 310 311 313 315 316 315 314 314 314 313 313 314 314 315 315 316 317 319 321 322 322 324 328 331 333 334 335 336 337 337 339 340 341 342 343 344 345 346 347 347 349 350 351 350 347
283 285 287 288 289 289 289 289 289 289 289 290 290 289 289 289 289 289 290 290 290 290 290 290 290 291 291 291 290 291 293 295 297 299 301 303 304 305 306 308 310 312 314 315 314 313 312 312 312 312 312 313 313 314 314 315 315 318 320 321 323 326 329 332 334 335 336 338 338 338 338 338 339 341 343 345 346 347 347 348 348 347 347 347 345
285 287 288 289 289 289 289 289 288 288 288 288 288 288 289 289 290 290 291 291 291 291 291 291 291 291 291 291 291 292 294 296 298 301 302 303 304 305 307 309 311 312 313 312 311 310 310 310 311 311 311 312 313 313 313 313 315 317 320 322 324 327 330 333 334 335 336 338 338 338 337 336 336 337 340 344 346 347 347 347 346 346 345 344 344
287 288 289 289 288 288 288 287 287 287 287 287 287 288 289 290 290 291 291 291 290 289 288 287 288 288 289 291 292 293 295 298 300 301 302 303 304 306 308 310 311 310 310 309 309 308 308 309 310 311 311 312 312 312 312 313 314 317 319 322 324 327 330 332 333 334 335 336 336 335 333 332 332 333 335 339 343 345 346 345 345 345 344 342 342
287 288 288 287 287 287 287 287 287 287 288 288 289 289 289 290 290 289 289 288 287 287 286 286 287 289 291 292 294 295 297 299 301 301 302 303 305 307 308 309 308 307 307 307 306 306 307 309 310 311 311 311 311 311 311 312 313 315 318 320 323 326 329 330 331 331 332 332 333 332 329 327 327 328 330 332 336 340 342 342 341 341 342 341 340
287 287 287 287 287 287 287 288 288 288 289 289 289 289 289 290 290 291 291 290 290 289 289 290 291 293 294 295 296 297 299 300 301 302 303 304 305 306 306 306 305 304 304 305 305 305 307 309 310 310 310 310 309 308 309 310 312 313 316 318 322 325 326 327 328 327 326 326 327 327 324 321 321 323 325 327 329 332 335 338 338 336 337 338 338
286 286 286 286 287 287 288 287 287 287 287 287 287 287 288 289 290 290 291 292 292 292 292 293 295 296 296 296 297 298 299 300 301 302 302 303 303 303 303 302 301 302 303 303 304 305 307 309 309 309 308 307 306 306 307 308 310 311 313 315 319 321 323 323 321 320 319 319 320 321 319 317 316 318 320 322 323 325 328 331 333 333 332 333 334
285 286 286 287 287 286 286 286 285 285 285 285 286 286 287 288 288 289 289 290 291 291 293 294 296 296 296 296 296 296 297 299 299 300 299 299 300 300 299 299 300 301 302 303 304 306 307 308 308 308 306 305 304 304 305 306 307 308 309 311 314 316 317 316 315 314 314 314 315 315 314 312 311 313 315 316 318 320 321 323 325 327 328 328 329
285 286 286 286 286 286 286 285 284 284 284 284 284 284 285 286 286 287 287 288 288 289 291 293 294 294 293 293 293 293 294 295 296 296 296 296 297 297 298 298 299 300 301 303 304 305 306 306 306 305 304 303 303 304 305 305 305 306 307 309 310 311 311 311 310 311 311 311 311 311 310 309 308 309 311 312 313 314 315 316 318 320 321 323 323
285 286 286 286 286 286 286 285 284 284 283 282 282 282 283 283 284 284 285 285 285 287 289 291 290 289 288 288 289 290 291 292 293 293 294 295 295 296 297 298 298 300 301 302 303 304 304 304 304 304 303 303 303 303 304 304 305 305 307 308 308 308 308 308 309 310 310 309 308 308 307 306 306 307 308 308 309 310 310 311 312 313 315 316 317
285 286 286 286 286 286 286 284 283 283 282 281 280 280 281 281 281 281 282 282 283 285 287 286 285 284 284 285 287 288 289 290 290 292 293 294 295 296 296 297 298 300 301 302 302 302 303 303 303 303 302 302 301 301 301 302 303 304 305 306 306 306 306 307 308 308 308 307 306 306 305 305 305 306 306 305 306 307 307 306 306 307 309 310 311
284 285 285 285 286 286 285 284 282 281 280 279 278 278 278 278 278 279 280 281 282 284 285 284 282 282 283 284 285 287 288 289 290 292 293 294 294 295 296 298 299 300 300 301 301 301 302 302 302 301 300 300 299 299 299 300 301 302 303 303 303 304 306 307 308 308 307 305 304 303 303 303 303 303 303 303 303 303 303 303 302 303 304 305 306
283 283 283 283 284 284 283 282 281 280 278 277 276 276 276 277 277 278 279 280 281 283 285 285 285 285 285 285 287 288 289 290 291 292 293 294 294 295 297 298 299 299 299 300 300 300 301 301 300 299 298 298 297 297 298 300 301 302 301 301 302 303 305 307 307 307 306 304 303 302 301 300 300 301 301 300 300 300 301 300 300 300 301 301 302
Height
10674 10674 10673 10673 10672 10671 10671 10670 10669 10667 10665 10664 10662 10661 10661 10660 10658 10656 10654 10652 10649 10646 10644 10641 10638 10636 10633 10630 10626 10623 10620 10616 10613 10610 10606 10603 10601 10598 10594 10590 10585 10580 10576 10572 10568 10564 10559 10554 10550 10545 10541 10536 10531 10526 10521 10516 10511 10505 10499 10494 10488 10484 10480 10475 10470 10463 10450 10439 10435 10430 10426 10422 10416 10410 10409 10405 10398 10391 10386 10382 10380 10379 10380 10383 10385
10669 10668 10668 10667 10667 10666 10666 10665 10663 10661 10659 10658 10656 10655 10655 10654 10652 10650 10647 10645 10642 10640 10637 10634 10632 10630 10627 10624 10621 10617 10614 10610 10607 10603 10600 10596 10593 10591 10587 10583 10579 10574 10570 10566 10561 10557 10552 10547 10542 10538 10533 10528 10523 10518 10513 10507 10501 10495 10489 10484 10478 10472 10467 10463 10457 10452 10444 10432 10423 10418 10412 10407 10402 10398 10395 10393 10388 10382 10375 10369 10366 10365 10365 10369 10372
10663 10663 10662 10662 10662 10661 10661 10659 10657 10656 10654 10652 10650 10649 10648 10647 10645 10643 10641 10638 10636 10634 10631 10629 10626 10624 10622 10619 10615 10611 10608 10604 10600 10597 10593 10590 10586 10584 10581 10577 10572 10568 10564 10559 10554 10549 10544 10539 10535 10530 10525 10520 10515 10510 10504 10499 10492 10486 10480 10474 10468 10461 10454 10449 10444 10440 10434 10425 10415 10409 10403 10396 10390 10385 10384 10381 10375 10371 10366 10359 10354 10351 10351 10354 10358
10657 10658 10657 10657 10657 10656 10655 10654 10652 10650 10648 10646 10645 10643 10643 10641 10639 10637 10635 10633 10631 10629 10626 10623 10621 10619 10616 10613 10609 10605 10601 10598 10594 10590 10587 10583 10580 10577 10574 10570 10566 10561 10557 10552 10547 10542 10537 10532 10527 10522 10517 10512 10507 10501 10496 10490 10484 10477 10471 10464 10458 10451 10443 10437 10431 10426 10422 10416 10407 10398 10392 10387 10380 10375 10374 10371 10364 10359 10355 10351 10345 10341 10339 10340 10344
10652 10652 10652 10651 10651 10650 10649 10648 10646 10644 10642 10640 10639 10638 10637 10636 10634 10632 10629 10627 10626 10624 10621 10619 10616 10613 10610 10607 10604 10600 10595 10592 10588 10584 10580 10577 10573 10571 10568 10564 10559 10555 10550 10545 10540 10534 10529 10524 10519 10514 10509 10504 10498 10493 10486 10481 10475 10468 10462 10455 10448 10440 10433 10426 10420 10413 10408 10403 10398 10390 10381 10376 10372 10365 10362 10361 10357 10350 10345 10340 10336 10333 10331 10329 10328
10647 10647 10646 10646 10645 10644 10644 10642 10640 10637 10636 10635 10634 10632 10631 10631 10629 10626 10623 10622 10620 10618 10616 10613 10611 10608 10605 10601 10598 10594 10589 10586 10582 10578 10575 10571 10567 10564 10562 10558 10553 10548 10543 10538 10532 10527 10521 10517 10511 10506 10501 10495 10489 10484 10477 10471 10465 10459 10452 10445 10438 10430 10423 10416 10410 10403 10396 10390 10386 10380 10372 10365 10362 10357 10350 10348 10347 10343 10338 10331 10324 10323 10324 10320 10315
10642 10641 10640 10639 10638 10638 10638 10636 10634 10632 10630 10629 10628 10627 10626 10625 10623 10620 10617 10616 10614 10612 10610 10607 10605 10602 10599 10595 10591 10587 10584 10580 10576 10572 10569 10565 10561 10558 10555 10551 10546 10542 10537 10531 10525 10519 10514 10509 10504 10498 10493 10487 10481 10475 10469 10462 10455 10449 10442 10435 10428 10421 10414 10407 10401 10395 10388 10381 10375 10370 10363 10356 10352 10348 10341 10337 10334 10333 10331 10325 10317 10313 10313 10311 10306
10637 10636 10635 10633 10632 10633 10632 10630 10628 10627 10625 10623 10622 10622 10621 10620 10618 10614 10612 10610 10608 10606 10604 10602 10599 10596 10592 10589 10585 10582 10578 10574 10570 10567 10563 10560 10556 10552 10548 10544 10540 10535 10529 10523 10517 10512 10507 10501 10496 10490 10484 10479 10474 10468 10462 10455 10447 10439 10433 10426 10419 10413 10406 10400 10394 10388 10380 10373 10366 10360 10354 10347 10343 10338 10332 10328 10324 10321 10319 10317 10312 10307 10302 10298 10295
10632 10631 10630 10628 10626 10626 10626 10625 10623 10622 10620 10618 10616 10616 10616 10615 10613 10609 10607 10605 10603 10601 10598 10596 10593 10590 10586 10583 10579 10576 10572 10568 10565 10561 10558 10554 10550 10546 10542 10537 10532 10527 10521 10515 10510 10504 10499 10493 10488 10482 10476 10471 10465 10459 10453 10446 10439 10432 10426 10419 10412 10406 10399 10392 10387 10381 10373 10365 10359 10354 10347 10340 10336 10331 10325 10320 10317 10313 10309 10306 10303 10300 10296 10289 10283
10626 10625 10625 10623 10621 10620 10620 10620 10618 10617 10616 10614 10612 10610 10609 10608 10606 10603 10601 10599 10597 10595 10593 10590 10587 10584 10581 10577 10574 10570 10567 10563 10560 10556 10552 10548 10544 10540 10536 10531 10526 10520 10514 10508 10503 10498 10492 10486 10480 10474 10468 10462 10456 10450 10443 10436 10430 10424 10417 10412 10405 10399 10393 10386 10380 10374 10367 10358 10352 10348 10343 10335 10329 10325 10320 10314 10309 10305 10301 10298 10294 10291 10289 10284 10275
10621 10620 10619 10619 10616 10614 10614 10614 10613 10612 10611 10609 10607 10604 10602 10601 10599 10597 10595 10594 10592 10590 10587 10585 10582 10578 10575 10572 10568 10565 10561 10558 10554 10551 10546 10542 10538 10534 10530 10525 10519 10513 10507 10502 10497 10491 10485 10479 10473 10467 10460 10454 10447 10440 10434 10427 10421 10414 10408 10402 10396 10391 10386 10380 10374 10367 10360 10352 10345 10341 10338 10331 10324 10318 10313 10307 10302 10297 10293 10289 10287 10283 10279 10278 10272
10615 10614 10614 10613 10612 10609 10609 10609 10609 10608 10607 10605 10602 10599 10597 10596 10594 10591 10589 10588 10586 10584 10582 10579 10576 10573 10570 10567 10563 10560 10556 10553 10549 10545 10541 10536 10532 10528 10524 10519 10513 10507 10502 10496 10491 10485 10479 10473 10467 10460 10453 10446 10439 10432 10426 10419 10412 10406 10399 10393 10387 10380 10375 10371 10366 10361 10354 10346 10339 10334 10331 10326 10319 10312 10306 10300 10294 10289 10284 10280 10278 10275 10271 10270 10268
10610 10609 10609 10609 10607 10605 10605 10606 10606 10605 10603 10600 10596 10594 10592 10591 10589 10586 10585 10583 10581 10579 10576 10574 10571 10568 10564 10561 10558 10554 10551 10547 10543 10539 10535 10531 10526 10522 10517 10512 10507 10501 10496 10490 10485 10479 10473 10467 10461 10454 10447 10440 10433 10426 10419 10412 10405 10398 10392 10385 10378 10371 10365 10359 10355 10350 10345 10339 10332 10326 10323 10319 10313 10306 10300 10295 10289 10283 10278 10272 10268 10266 10263 10262 10262
10605 10604 10604 10604 10603 10602 10601 10602 10602 10601 10598 10595 10592 10589 10587 10586 10584 10582 10580 10578 10576 10574 10571 10568 10565 10562 10559 10555 10552 10549 10545 10541 10538 10533 10529 10525 10520 10516 10511 10506 10500 10495 10490 10484 10479 10473 10467 10461 10455 10448 10442 10435 10428 10421 10413 10406 10399 10392 10385 10378 10371 10364 10358 10352 10346 10340 10334 10329 10324 10318 10314 10310 10306 10301 10295 10289 10284 10278 10274 10269 10265 10260 10256 10254 10254
10599 10599 10598 10598 10598 10597 10596 10597 10597 10596 10593 10590 10588 10585 10583 10581 10579 10577 10575 10573 10571 10568 10565 10562 10559 10556 10553 10550 10547 10543 10539 10535 10532 10528 10523 10519 10514 10510 10505 10500 10494 10489 10484 10478 10473 10468 10461 10455 10449 10442 10436 10429 10423 10416 10409 10401 10394 10387 10380 10373 10365 10358 10352 10347 10341 10335 10328 10322 10316 10311 10306 10302 10299 10296 10291 10285 10279 10272 10268 10265 10262 10259 10253 10248 10247
10594 10593 10593 10593 10592 10592 10591 10591 10591 10589 10587 10585 10583 10580 10578 10577 10574 10572 10570 10568 10565 10562 10559 10556 10553 10550 10547 10545 10541 10537 10533 10529 10526 10522 10517 10513 10508 10504 10499 10494 10489 10484 10478 10473 10467 10462 10456 10449 10443 10437 10430 10424 10418 10411 10405 10397 10390 10382 10375 10367 10360 10353 10346 10340 10334 10328 10322 10316 10309 10303 10298 10294 10291 10288 10285 10281 10275 10268 10262 10258 10255 10254 10249 10243 10240
10588 10587 10587 10586 10586 10585 10585 10584 10584 10582 10581 10579 10577 10575 10573 10571 10569 10566 10564 10562 10559 10557 10554 10550 10547 10544 10542 10539 10536 10532 10528 10524 10520 10516 10511 10507 10502 10498 10493 10488 10483 10478 10473 10467 10462 10456 10450 10444 10437 10431 10425 10419 10413 10407 10400 10393 10386 10378 10371 10363 10356 10349 10342 10335 10327 10321 10315 10309 10303 10297 10292 10287 10284 10280 10277 10274 10270 10265 10260 10255 10251 10248 10245 10240 10234
10581 10581 10580 10580 10579 10578 10578 10577 10576 10575 10574 10573 10571 10569 10567 10565 10563 10560 10558 10556 10553 10550 10548 10544 10541 10539 10536 10533 10530 10526 10522 10518 10515 10510 10506 10501 10496 10491 10487 10482 10477 10472 10467 10462 10456 10450 10444 10438 10432 10426 10420 10414 10408 10402 10396 10389 10382 10375 10368 10360 10353 10347 10341 10334 10325 10318 10311 10305 10299 10293 10288 10282 10278 10274 10271 10268 10264 10260 10257 10253 10249 10245 10241 10237 10232
10575 10575 10574 10573 10572 10572 10571 10570 10569 10568 10567 10566 10565 10563 10561 10559 10557 10554 10551 10549 10547 10544 10541 10538 10535 10533 10530 10527 10524 10521 10517 10513 10509 10504 10499 10495 10490 10485 10481 10476 10471 10466 10461 10456 10450 10444 10438 10432 10426 10420 10415 10409 10403 10398 10392 10385 10379 10372 10365 10358 10351 10344 10338 10333 10326 10320 10313 10307 10301 10295 10288 10282 10276 10271 10267 10263 10259 10255 10251 10248 10244 10241 10237 10234 10231
10570 10569 10568 10567 10566 10565 10565 10564 10563 10562 10561 10560 10558 10557 10555 10553 10551 10548 10545 10543 10541 10538 10535 10533 10530 10526 10523 10520 10517 10514 10510 10506 10502 10497 10493 10488 10484 10480 10475 10470 10465 10460 10455 10449 10444 10438 10432 10426 10421 10415 10410 10404 10399 10394 10388 10381 10375 10368 10362 10355 10349 10342 10336 10330 10325 10319 10312 10306 10301 10296 10288 10280 10274 10268 10263 10259 10255 10250 10247 10244 10240 10237 10233 10229 10227
10564 10563 10562 10562 10560 10559 10559 10558 10557 10556 10555 10554 10552 10550 10548 10547 10545 10542 10539 10537 10535 10532 10530 10528 10524 10520 10517 10513 10510 10507 10503 10499 10495 10491 10487 10482 10478 10474 10469 10464 10459 10454 10449 10443 10438 10432 10427 10422 10416 10411 10406 10400 10395 10389 10383 10377 10370 10363 10357 10352 10345 10339 10334 10328 10322 10316 10310 10304 10298 10294 10287 10279 10271 10266 10261 10257 10253 10248 10245 10242 10238 10234 10231 10227 10223
10559 10558 10557 10556 10555 10554 10554 10552 10551 10549 10548 10547 10545 10544 10542 10540 10539 10536 10533 10531 10529 10526 10524 10522 10518 10515 10511 10508 10504 10501 10497 10492 10489 10485 10480 10476 10472 10468 10463 10458 10453 10448 10443 10437 10432 10427 10421 10417 10411 10406 10402 10396 10391 10385 10378 10372 10365 10359 10352 10347 10341 10335 10330 10324 10319 10313 10307 10301 10295 10291 10286 10279 10271 10265 10260 10255 10251 10247 10243 10240 10237 10232 10228 10225 10222
10553 10552 10551 10550 10549 10548 10548 10547 10545 10543 10541 10540 10538 10537 10535 10534 10532 10530 10527 10525 10522 10520 10517 10515 10511 10508 10505 10502 10499 10495 10490 10486 10483 10479 10474 10470 10466 10462 10457 10452 10447 10442 10437 10431 10426 10421 10416 10411 10406 10402 10397 10392 10387 10381 10374 10367 10361 10354 10348 10342 10337 10332 10326 10321 10315 10310 10305 10299 10293 10288 10285 10280 10272 10266 10260 10255 10251 10247 10243 10240 10236 10231 10226 10223 10221
10547 10546 10545 10544 10542 10541 10541 10540 10538 10537 10535 10533 10532 10531 10529 10528 10526 10523 10521 10518 10516 10513 10511 10508 10505 10502 10499 10496 10493 10488 10484 10480 10476 10472 10468 10464 10460 10455 10451 10446 10441 10436 10431 10426 10421 10416 10411 10406 10401 10397 10392 10387 10382 10376 10370 10363 10357 10351 10345 10340 10334 10329 10324 10318 10313 10308 10302 10297 10291 10285 10282 10279 10273 10267 10261 10256 10251 10246 10241 10236 10232 10229 10225 10222 10220
10540 10539 10538 10537 10536 10535 10534 10533 10532 10531 10529 10527 10525 10524 10522 10521 10519 10516 10514 10511 10509 10507 10505 10501 10498 10495 10493 10489 10485 10481 10477 10473 10469 10466 10461 10457 10453 10449 10444 10440 10435 10430 10425 10420 10416 10411 10406 10401 10396 10392 10386 10381 10376 10371 10366 10360 10354 10348 10343 10337 10332 10327 10322 10317 10312 10306 10300 10295 10290 10284 10280 10277 10272 10266 10260 10255 10250 10245 10239 10234 10229 10226 10223 10220 10219
10533 10532 10532 10531 10530 10529 10528 10527 10526 10524 10522 10521 10519 10517 10515 10514 10512 10509 10507 10504 10501 10500 10498 10495 10492 10489 10486 10482 10478 10474 10470 10466 10463 10458 10454 10450 10446 10442 10437 10433 10428 10424 10419 10415 10410 10405 10401 10396 10391 10386 10381 10376 10371 10366 10361 10355 10350 10345 10340 10335 10330 10326 10321 10316 10311 10305 10300 10295 10290 10284 10278 10274 10270 10264 10258 10253 10249 10245 10241 10236 10231 10227 10224 10222 10220
10527 10526 10525 10525 10524 10522 10521 10520 10519 10517 10516 10514 10512 10510 10508 10507 10505 10502 10500 10497 10494 10492 10489 10487 10484 10482 10478 10474 10470 10466 10463 10459 10455 10451 10447 10443 10439 10435 10431 10426 10422 10418 10413 10409 10405 10400 10396 10391 10386 10381 10376 10372 10367 10361 10356 10351 10346 10341 10337 10333 10328 10323 10319 10315 10310 10305 10300 10294 10288 10282 10276 10270 10267 10263 10258 10254 10249 10245 10242 10238 10234 10229 10226 10223 10221
10521 10520 10519 10518 10517 10516 10515 10513 10512 10510 10509 10507 10505 10503 10501 10499 10497 10495 10493 10490 10487 10485 10482 10479 10477 10474 10470 10466 10462 10459 10455 10451 10448 10443 10439 10436 10432 10428 10424 10420 10416 10412 10408 10403 10399 10395 10390 10386 10381 10376 10371 10367 10362 10357 10352 10348 10345 10340 10334 10330 10326 10320 10315 10311 10306 10302 10296 10291 10286 10281 10275 10269 10265 10262 10258 10254 10250 10246 10242 10238 10235 10231 10227 10225 10222
10514 10513 10512 10511 10510 10509 10508 10507 10505 10503 10501 10500 10498 10496 10494 10492 10490 10487 10485 10483 10481 10478 10475 10473 10469 10466 10462 10458 10454 10451 10447 10443 10440 10436 10432 10428 10425 10421 10417 10414 10410 10406 10402 10398 10394 10390 10385 10380 10376 10371 10366 10362 10357 10352 10347 10343 10341 10338 10333 10328 10323 10318 10312 10308 10303 10299 10294 10290 10285 10280 10276 10270 10265 10261 10257 10254 10250 10246 10243 10239 10235 10231 10228 10226 10224
10507 10506 10505 10505 10504 10503 10501 10499 10498 10496 10493 10492 10490 10488 10486 10484 10482 10479 10477 10475 10473 10471 10468 10465 10461 10457 10452 10449 10446 10442 10439 10435 10432 10428 10425 10421 10418 10414 10411 10408 10404 10401 10397 10393 10389 10384 10380 10375 10371 10367 10362 10357 10352 10348 10343 10338 10336 10333 10329 10325 10320 10315 10310 10306 10301 10297 10293 10289 10285 10280 10276 10272 10266 10261 10257 10254 10250 10247 10244 10241 10237 10233 10229 10227 10225
10500 10499 10498 10498 10497 10496 10493 10491 10490 10488 10486 10484 10482 10480 10478 10477 10474 10471 10469 10467 10465 10463 10459 10456 10452 10448 10444 10440 10437 10433 10430 10427 10424 10421 10418 10414 10411 10408 10405 10402 10399 10395 10392 10388 10384 10379 10375 10370 10367 10362 10358 10353 10349 10344 10339 10335 10332 10329 10325 10321 10317 10313 10309 10304 10300 10296 10292 10287 10283 10279 10275 10272 10267 10262 10258 10254 10251 10247 10244 10241 10238 10234 10231 10229 10227
10493 10492 10491 10491 10490 10489 10486 10484 10482 10479 10478 10476 10474 10472 10471 10469 10465 10462 10460 10458 10456 10454 10451 10447 10443 10439 10436 10432 10429 10425 10422 10419 10417 10414 10411 10408 10405 10402 10399 10396 10393 10390 10387 10383 10379 10374 10370 10366 10362 10358 10353 10349 10345 10341 10336 10332 10329 10326 10322 10318 10314 10311 10307 10303 10299 10296 10292 10287 10283 10279 10275 10271 10267 10263 10259 10254 10251 10247 10244 10241 10239 10236 10233 10231 10229
10486 10485 10484 10483 10483 10481 10479 10477 10474 10472 10470 10468 10466 10463 10462 10460 10457 10454 10451 10448 10445 10443 10441 10438 10434 10430 10427 10424 10421 10417 10415 10412 10410 10407 10404 10401 10399 10396 10394 10391 10388 10385 10382 10378 10374 10370 10366 10361 10357 10353 10349 10345 10342 10338 10334 10329 10326 10323 10320 10316 10313 10309 10305 10302 10298 10295 10292 10287 10283 10279 10275 10270 10266 10262 10258 10255 10251 10248 10245 10242 10239 10237 10234 10232 10230
10478 10477 10476 10476 10475 10473 10471 10469 10466 10464 10461 10459 10457 10455 10453 10451 10449 10446 10442 10439 10436 10433 10431 10429 10425 10421 10418 10415 10413 10410 10408 10406 10403 10400 10398 10396 10393 10391 10389 10386 10383 10380 10377 10373 10370 10366 10361 10357 10353 10350 10346 10342 10338 10335 10330 10326 10323 10320 10317 10314 10311 10307 10304 10300 10297 10293 10290 10286 10282 10277 10273 10270 10266 10262 10258 10255 10251 10248 10245 10242 10239 10237 10235 10233 10232
10471 10470 10469 10468 10467 10466 10464 10461 10458 10455 10453 10450 10448 10446 10443 10442 10440 10437 10433 10430 10427 10425 10422 10419 10416 10413 10410 10408 10406 10403 10401 10399 10397 10395 10393 10390 10388 10386 10383 10381 10378 10375 10372 10368 10365 10361 10357 10353 10349 10346 10342 10339 10335 10331 10327 10323 10320 10317 10314 10311 10308 10305 10302 10298 10295 10292 10288 10285 10281 10277 10272 10268 10266 10262 10259 10256 10252 10249 10246 10243 10240 10238 10236 10235 10233
10463 10462 10461 10461 10460 10458 10456 10453 10450 10447 10444 10441 10439 10436 10433 10431 10429 10427 10424 10421 10419 10416 10414 10411 10408 10405 10403 10401 10399 10397 10395 10393 10391 10389 10387 10385 10383 10380 10378 10375 10372 10370 10367 10363 10360 10356 10352 10348 10345 10341 10338 10335 10331 10328 10324 10320 10317 10314 10311 10308 10306 10303 10300 10296 10293 10290 10286 10283 10280 10276 10272 10268 10264 10261 10258 10255 10252 10249 10247 10244 10242 10239 10237 10236 10234
10455 10454 10453 10453 10451 10449 10447 10444 10441 10437 10434 10432 10430 10427 10423 10420 10419 10417 10415 10412 10410 10408 10406 10403 10400 10398 10397 10395 10393 10390 10388 10387 10386 10384 10382 10380 10377 10375 10372 10369 10367 10364 10362 10358 10355 10351 10347 10344 10340 10337 10334 10331 10327 10324 10321 10317 10314 10312 10310 10307 10304 10301 10298 10295 10291 10288 10285 10282 10279 10275 10272 10268 10264 10261 10258 10255 10252 10249 10246 10244 10242 10240 10238 10236 10235
10446 10446 10445 10444 10442 10440 10437 10434 10431 10428 10424 10422 10420 10417 10414 10410 10408 10407 10405 10403 10401 10400 10398 10395 10393 10391 10390 10389 10386 10384 10383 10381 10380 10378 10376 10374 10372 10369 10366 10364 10361 10359 10356 10353 10350 10346 10343 10339 10336 10333 10330 10327 10323 10320 10317 10314 10312 10309 10308 10305 10303 10300 10296 10293 10290 10287 10284 10281 10278 10274 10271 10268 10265 10261 10258 10255 10252 10249 10246 10244 10242 10240 10238 10236 10235
10438 10437 10436 10435 10433 10430 10427 10425 10422 10418 10415 10412 10410 10408 10406 10403 10400 10398 10397 10395 10393 10391 10390 10388 10386 10385 10384 10382 10380 10378 10377 10376 10374 10372 10370 10368 10366 10364 10361 10358 10356 10354 10351 10348 10345 10341 10338 10335 10332 10329 10326 10323 10320 10316 10314 10311 10308 10307 10305 10303 10300 10298 10294 10291 10288 10285 10282 10279 10276 10273 10270 10267 10265 10262 10258 10255 10252 10249 10246 10244 10241 10239 10238 10236 10235
10430 10429 10428 10426 10424 10421 10418 10415 10412 10409 10406 10404 10401 10398 10396 10394 10392 10391 10389 10387 10386 10384 10382 10380 10379 10378 10377 10376 10374 10372 10371 10369 10368 10366 10364 10362 10360 10358 10356 10353 10351 10348 10345 10343 10340 10337 10334 10331 10328 10325 10322 10319 10316 10313 10310 10307 10305 10303 10302 10300 10297 10295 10292 10289 10286 10283 10280 10278 10275 10272 10269 10266 10264 10261 10259 10256 10253 10249 10247 10244 10242 10240 10238 10237 10235
10421 10420 10419 10417 10414 10411 10408 10405 10403 10401 10399 10397 10393 10390 10387 10386 10385 10383 10381 10380 10378 10376 10375 10373 10372 10372 10371 10369 10367 10366 10364 10363 10362 10361 10359 10356 10354 10352 10350 10348 10345 10343 10340 10338 10336 10333 10330 10327 10325 10321 10318 10315 10312 10309 10307 10304 10301 10299 10297 10295 10293 10291 10288 10286 10284 10281 10279 10276 10273 10271 10268 10266 10263 10260 10258 10255 10252 10250 10247 10245 10242 10240 10238 10236 10235
10411 10410 10408 10407 10404 10401 10398 10396 10394 10392 10390 10388 10386 10383 10381 10379 10377 10376 10374 10373 10371 10370 10369 10368 10367 10367 10366 10364 10361 10359 10358 10358 10357 10355 10353 10351 10349 10346 10344 10342 10339 10337 10335 10333 10331 10328 10326 10323 10320 10317 10314 10311 10309 10306 10303 10301 10298 10295 10293 10291 10289 10287 10285 10283 10281 10279 10276 10274 10272 10270 10267 10264 10262 10259 10257 10254 10252 10250 10247 10245 10242 10240 10238 10236 10234
10401 10400 10398 10396 10394 10392 10389 10387 10385 10383 10381 10379 10377 10375 10373 10372 10370 10369 10368 10367 10366 10365 10364 10362 10362 10361 10359 10357 10355 10353 10353 10352 10351 10349 10347 10345 10343 10341 10338 10336 10334 10332 10330 10328 10326 10324 10321 10319 10316 10313 10311 10308 10305 10303 10300 10298 10295 10292 10290 10288 10285 10283 10281 10279 10277 10276 10274 10272 10270 10268 10266 10263 10261 10258 10256 10253 10251 10249 10247 10245 10242 10240 10238 10236 10234
10390 10389 10388 10386 10384 10382 10380 10378 10376 10374 10373 10371 10370 10368 10366 10364 10363 10361 10360 10360 10359 10358 10357 10356 10355 10354 10353 10351 10349 10347 10346 10346 10345 10343 10341 10339 10337 10335 10333 10331 10329 10327 10325 10323 10321 10319 10316 10314 10312 10309 10307 10305 10302 10300 10297 10295 10293 10290 10287 10285 10283 10281 10279 10277 10275 10273 10271 10270 10268 10267 10264 10262 10259 10257 10255 10252 10250 10248 10246 10244 10242 10240 10238 10236 10234
10380 10379 10378 10377 10375 10373 10371 10369 10367 10366 10365 10363 10362 10360 10359 10357 10356 10354 10353 10352 10352 10351 10350 10350 10349 10348 10347 10345 10343 10341 10340 10340 10339 10337 10335 10333 10331 10330 10328 10326 10324 10322 10321 10319 10316 10314 10311 10309 10307 10305 10303 10301 10299 10297 10294 10292 10290 10288 10285 10283 10281 10279 10277 10275 10273 10271 10269 10267 10266 10265 10262 10260 10257 10256 10254 10251 10249 10246 10244 10243 10241 10239 10237 10235 10233
10370 10369 10368 10368 10366 10365 10363 10362 10360 10358 10357 10356 10354 10352 10351 10350 10349 10348 10347 10346 10345 10344 10344 10343 10343 10342 10341 10339 10338 10336 10334 10333 10333 10331 10330 10328 10326 10325 10323 10321 10319 10317 10315 10313 10311 10309 10307 10305 10303 10301 10299 10297 10295 10293 10291 10290 10288 10286 10284 10281 10280 10278 10276 10273 10271 10269 10266 10264 10263 10262 10260 10258 10255 10254 10252 10250 10247 10245 10243 10241 10239 10238 10236 10234 10232
10361 10360 10359 10358 10358 10357 10356 10354 10352 10350 10349 10348 10347 10345 10344 10344 10342 10341 10340 10340 10339 10338 10338 10337 10337 10336 10335 10334 10332 10330 10329 10328 10327 10326 10324 10323 10321 10319 10317 10316 10314 10312 10310 10308 10306 10304 10302 10301 10299 10297 10295 10293 10291 10289 10288 10286 10285 10283 10281 10279 10278 10276 10274 10271 10268 10266 10264 10262 10260 10259 10257 10255 10253 10252 10250 10248 10246 10244 10242 10239 10238 10236 10235 10233 10231
10353 10352 10351 10350 10349 10349 10347 10346 10344 10343 10342 10341 10339 10338 10338 10337 10336 10335 10334 10333 10332 10332 10332 10332 10331 10331 10329 10328 10327 10326 10324 10323 10321 10320 10319 10317 10316 10314 10312 10310 10308 10306 10304 10303 10301 10300 10298 10296 10295 10293 10291 10289 10287 10285 10284 10282 10281 10279 10277 10275 10274 10272 10270 10268 10266 10263 10261 10259 10256 10255 10253 10252 10251 10249 10247 10245 10243 10242 10240 10238 10236 10234 10233 10231 10230
10346 10345 10343 10342 10341 10341 10340 10338 10337 10335 10334 10333 10332 10331 10331 10330 10329 10328 10328 10327 10326 10326 10326 10327 10326 10325 10324 10323 10321 10320 10319 10317 10316 10314 10313 10312 10310 10309 10307 10304 10302 10301 10299 10297 10296 10295 10293 10292 10290 10288 10286 10284 10283 10281 10280 10278 10277 10275 10273 10271 10270 10268 10267 10265 10262 10260 10258 10256 10253 10251 10249 10248 10247 10246 10244 10242 10240 10239 10237 10235 10233 10232 10230 10229 10227
10339 10338 10336 10335 10334 10333 10332 10331 10329 10328 10327 10326 10325 10325 10324 10323 10323 10322 10321 10320 10319 10319 10320 10320 10320 10319 10318 10316 10315 10314 10312 10311 10310 10309 10308 10306 10305 10303 10301 10299 10297 10295 10294 10292 10291 10289 10288 10286 10285 10283 10281 10280 10278 10277 10275 10274 10272 10271 10269 10267 10266 10264 10263 10261 10259 10256 10254 10252 10250 10248 10246 10244 10243 10242 10241 10239 10237 10236 10234 10232 10231 10229 10228 10226 10225
10332 10331 10329 10328 10326 10326 10325 10323 10322 10321 10320 10319 10318 10318 10318 10317 10316 10316 10315 10314 10313 10312 10312 10312 10312 10311 10310 10309 10308 10307 10306 10305 10304 10303 10302 10301 10299 10297 10295 10294 10292 10290 10289 10287 10285 10284 10282 10281 10280 10278 10276 10275 10274 10272 10271 10269 10268 10266 10264 10263 10261 10260 10258 10256 10254 10252 10250 10247 10246 10244 10242 10240 10239 10238 10237 10235 10233 10232 10230 10229 10228 10226 10225 10223 10222